Location: Seattle
(47.6064°N, 122.3308°W)
Time: 14:14:03
(UTC-08:00)

S-56A Canister/Altair - Pass Details

Date: 10 October 2022
Orbit: 638 x 2494 km, 38.9° (Epoch: 02 December)

Event Time Altitude Azimuth Distance (km) Brightness Sun altitude
Rises 21:40:31 0° 200° (SSW) 6,092 12.0 -32.0°
Reaches altitude 10° 21:45:29 10° 189° (S) 5,144 11.5 -32.7°
Enters shadow 21:48:57 17° 178° (S) 4,573 11.1 -33.2°
